Dewpoint
61 61 61 60 61 61 60 59 58 58 58 59 60 60 59 56 39 31 29 42 58 64 57 33 31 31 32 30 32 32 24 23 24 22 22 21 20 20 20 19 19 20 18 19 21
60 60 61 61 60 60 59 58 58 58 59 59 60 59 59 56 31 28 40 57 60 57 31 29 26 29 29 29 29 28 24 25 26 23 21 21 20 19 19 18 18 18 19 20 21
60 60 60 60 59 59 58 58 57 58 59 59 58 58 57 50 25 26 43 53 56 40 34 31 29 28 26 29 28 26 25 24 23 22 22 20 19 20 19 19 18 17 19 20 21
59 59 60 60 59 59 58 57 58 58 59 58 58 58 50 28 19 29 43 48 46 34 31 28 26 25 25 24 26 23 25 24 25 23 21 20 20 19 20 20 20 20 21 21 21
59 59 60 60 59 58 57 57 58 59 58 56 58 53 30 27 27 31 39 35 32 31 30 25 25 26 24 24 24 23 22 22 23 21 21 20 19 19 19 21 21 21 21 21 21
59 60 60 60 58 57 57 57 59 57 55 55 57 42 27 24 31 31 31 31 31 29 28 28 27 27 23 22 22 22 21 20 20 19 20 20 19 18 19 21 20 21 21 21 21
59 59 59 59 58 58 58 58 56 52 51 53 53 30 28 27 31 30 29 29 30 30 28 28 27 24 23 21 22 21 20 19 19 18 18 19 18 17 20 20 20 20 21 21 22
58 58 58 58 58 57 56 54 52 50 50 52 50 28 26 30 32 29 30 29 29 28 27 27 26 24 23 23 23 22 22 20 20 18 18 21 18 18 20 19 19 20 20 21 22
58 59 58 57 55 54 54 51 50 46 49 45 26 26 24 28 27 28 29 27 28 28 28 27 27 25 26 23 22 23 17 21 23 19 18 20 19 18 20 19 19 19 20 20 21
58 57 55 53 54 54 52 48 44 30 29 28 27 20 26 25 27 27 29 28 25 24 24 20 20 19 19 19 6 17 16 18 19 21 18 17 18 19 20 19 19 19 19 20 21
56 55 53 52 53 52 40 31 22 22 27 25 25 25 26 27 28 27 28 24 22 21 19 16 13 13 16 17 20 20 17 16 17 22 19 19 19 20 18 19 19 18 19 20 21
55 53 52 52 50 49 42 34 34 30 24 26 26 26 28 27 22 26 26 18 19 17 19 15 13 18 20 17 16 18 17 14 17 22 20 20 18 20 20 18 19 19 18 19 20
54 51 50 48 46 44 44 44 46 38 23 24 26 25 26 26 25 25 26 21 16 15 17 16 16 22 19 16 10 14 14 15 13 16 20 18 15 16 16 16 16 17 18 18 19
51 49 49 44 36 39 42 48 48 33 15 18 23 25 26 27 23 27 26 24 22 16 20 18 21 17 16 13 15 7 19 16 16 16 12 17 10 15 16 16 15 16 16 17 19
50 50 49 40 38 34 45 48 42 27 13 21 24 28 27 23 24 25 26 23 20 22 22 17 18 12 11 13 20 14 20 19 19 17 17 16 14 14 16 14 16 16 16 17 19
49 50 48 45 44 47 46 38 29 20 15 20 25 24 22 25 26 25 22 25 24 21 22 20 24 21 19 19 20 19 17 18 20 19 12 15 14 12 13 14 15 16 17 18 20
50 48 47 47 37 46 40 32 20 17 23 20 22 24 23 23 24 22 20 19 19 15 15 18 22 21 19 11 15 15 14 11 10 10 9 16 14 13 15 16 16 16 17 19 21
48 48 47 46 46 41 34 27 19 21 20 25 24 23 19 24 24 23 21 18 22 21 17 9 1 18 19 12 10 15 13 11 9 9 10 14 11 12 14 13 14 15 17 20 21
46 44 43 46 45 37 26 22 22 21 23 24 24 21 22 23 23 23 22 21 23 22 12 8 5 21 21 17 14 13 11 12 10 10 9 11 11 13 13 13 13 16 18 20 21
42 40 39 48 44 35 25 23 25 28 27 25 19 23 21 22 22 22 22 24 24 22 23 18 7 20 21 20 16 13 12 11 11 10 11 12 11 13 13 13 13 14 17 20 20
41 32 40 48 39 33 20 25 27 30 30 25 23 23 23 21 23 22 22 24 24 22 20 18 14 10 18 17 15 13 11 10 11 11 11 11 13 14 13 13 12 13 16 19 20
42 29 41 42 29 32 28 28 30 29 31 30 27 24 24 24 23 23 22 24 24 21 18 18 15 9 9 15 14 15 13 11 11 11 9 9 11 12 12 12 13 14 16 20 20
40 39 41 39 24 27 30 30 31 30 29 29 27 27 28 25 22 25 26 24 23 22 19 19 14 10 13 15 14 13 14 11 11 11 10 11 13 12 12 12 13 14 16 20 17
40 31 33 38 34 29 28 27 27 32 30 30 28 28 27 27 29 24 26 23 24 23 26 21 15 11 11 13 12 12 12 11 11 11 11 10 14 15 14 13 13 14 17 18 11
43 38 33 27 32 30 29 27 26 27 30 29 27 26 24 22 25 25 28 27 26 29 21 19 15 16 16 16 16 15 15 12 11 12 13 15 13 15 16 15 13 14 18 15 8
39 38 38 35 33 30 28 26 25 27 28 27 26 26 26 21 21 21 28 27 24 25 20 21 17 16 14 14 15 13 14 17 13 12 11 12 12 15 15 14 13 16 17 15 8
45 42 37 35 32 29 28 26 26 27 29 29 29 27 26 26 27 29 28 26 26 23 20 20 18 14 14 14 15 12 15 15 16 15 13 14 17 16 15 14 13 15 18 16 11
Wind_Speed
3 1 1 2 0 2 1 3 4 5 7 8 11 13 13 14 7 6 20 8 12 19 3 2 12 8 11 8 9 2 7 8 9 11 8 10 6 2 3 7 3 2 4 6 20
3 1 2 2 1 2 3 4 5 8 10 11 12 13 12 9 4 18 2 20 16 5 5 4 8 12 9 7 7 7 6 4 3 6 11 12 5 11 5 6 3 6 11 14 14
2 2 2 1 1 1 3 4 7 10 11 12 14 15 11 4 6 7 19 25 13 5 10 7 9 8 8 7 10 6 5 5 3 5 13 11 8 4 11 6 9 18 18 13 12
3 3 2 3 2 2 2 5 7 9 11 13 13 13 10 3 3 9 26 19 7 5 6 7 7 6 7 7 5 9 8 4 5 7 7 11 10 6 5 1 8 19 19 14 12
3 4 3 2 2 3 5 6 9 8 10 13 13 11 4 10 5 13 21 13 12 7 10 5 9 6 8 7 5 12 5 7 8 9 8 10 4 4 4 2 14 18 14 14 12
6 5 3 1 2 4 7 8 9 8 10 12 13 4 6 14 6 13 11 14 16 19 17 12 8 15 12 7 7 5 12 10 4 4 5 4 3 2 4 11 17 17 15 14 13
7 5 2 2 3 6 9 10 10 8 10 11 12 6 19 5 3 8 19 11 6 8 13 6 7 6 8 10 7 7 8 4 3 4 3 5 4 9 13 16 17 16 14 12 10
6 4 2 3 6 9 12 12 11 9 9 6 6 5 6 1 1 12 7 9 12 15 18 14 16 16 7 12 4 4 3 1 4 6 1 1 6 6 18 22 20 18 15 12 10
5 4 4 4 8 11 14 12 7 7 6 5 4 5 4 4 4 7 7 5 5 7 9 7 8 8 4 5 4 4 1 2 3 9 4 5 6 6 17 20 20 19 16 13 11
4 3 2 5 9 13 15 4 4 5 5 3 4 5 5 2 4 5 4 5 6 2 4 8 7 6 5 3 2 1 2 4 5 6 7 8 24 8 17 20 23 20 16 15 14
3 2 4 7 11 14 4 2 4 5 12 5 1 4 1 5 3 7 5 1 4 10 6 6 9 6 3 0 2 2 2 5 4 4 6 14 23 18 17 20 20 20 17 18 16
2 3 5 7 11 10 4 6 2 4 8 3 2 2 1 1 2 16 6 4 5 4 4 4 4 1 2 3 2 3 3 5 4 3 7 11 26 20 15 19 24 21 19 19 13
2 4 7 9 8 6 7 6 1 5 4 3 2 3 2 4 4 10 6 3 6 5 6 3 2 1 2 2 2 2 3 3 6 2 4 10 10 4 2 8 9 13 13 16 20
4 5 9 5 4 1 3 3 3 2 3 4 3 4 3 2 4 3 5 3 4 3 3 3 1 2 1 1 1 3 1 3 6 5 5 6 8 4 3 10 10 15 16 16 18
8 7 6 7 7 3 1 6 0 2 2 1 2 1 3 5 0 8 4 5 4 3 2 1 1 1 0 2 1 3 3 2 1 1 4 3 2 8 4 6 6 14 16 15 14
10 7 2 4 4 1 5 2 1 2 3 1 1 2 2 6 3 5 5 9 3 3 4 1 1 1 1 1 0 1 1 3 3 2 3 1 2 10 3 2 3 3 12 14 14
10 9 5 1 2 5 2 2 2 2 1 2 1 2 3 3 4 6 5 6 2 1 2 3 1 1 1 1 1 2 5 7 5 5 4 1 3 14 6 4 6 6 7 14 15
8 6 6 4 4 1 3 2 3 1 4 0 2 3 2 1 3 4 3 2 4 2 2 1 2 1 3 2 1 4 2 2 5 6 13 1 7 4 3 2 5 5 6 14 15
4 3 2 6 6 2 4 1 4 4 3 6 2 2 0 1 1 2 2 2 1 1 1 1 2 1 4 1 1 0 2 2 1 1 5 5 8 12 5 8 5 2 10 16 15
2 2 1 9 4 4 3 4 3 3 3 3 6 3 4 3 3 2 3 3 3 1 2 4 2 0 1 3 6 1 6 1 3 4 7 7 9 12 8 8 10 11 14 16 14
3 1 2 7 2 4 4 5 4 4 3 5 7 4 4 4 5 4 4 3 4 4 2 4 1 1 1 4 5 2 1 3 4 4 3 7 13 8 10 7 9 15 18 20 19
3 2 4 3 3 1 4 4 2 4 2 2 3 3 6 8 5 5 6 3 5 6 5 3 4 4 2 1 0 2 4 5 3 4 3 2 13 5 8 9 9 11 15 18 18
2 2 2 2 5 6 2 3 3 6 5 5 6 2 2 7 3 5 4 2 5 6 7 8 1 4 2 1 1 5 5 4 5 3 10 5 12 6 6 11 10 10 12 17 17
2 2 1 3 1 3 5 5 5 3 3 3 4 3 4 4 3 5 6 4 3 3 3 3 4 6 9 5 3 6 8 10 6 6 6 17 24 25 15 16 13 11 14 18 18
2 2 2 2 3 5 5 5 7 7 4 5 3 9 7 6 5 5 5 4 2 5 2 4 6 7 13 18 12 16 16 15 20 13 13 12 14 31 25 21 12 13 15 17 18
3 3 1 1 1 5 5 8 12 7 10 7 9 9 10 6 8 8 11 8 6 6 6 2 3 2 8 2 6 13 16 17 22 14 23 32 38 30 17 4 6 11 19 21 20
1 1 2 1 3 4 5 7 9 8 7 1 9 7 11 10 4 3 6 6 6 8 11 5 5 1 7 3 13 14 11 18 10 11 12 16 21 4 12 14 11 14 22 24 22
Wind_Direction
78 107 191 113 89 271 305 314 333 353 345 346 340 333 337 337 14 41 35 311 307 309 307 17 39 37 46 58 43 95 84 132 157 171 163 163 150 91 83 123 87 21 148 144 146
89 134 94 72 124 296 340 328 346 344 341 345 340 332 340 343 48 40 41 340 334 325 59 56 40 40 57 30 25 55 94 124 123 140 155 162 164 151 149 137 77 103 105 126 142
66 70 89 114 59 310 328 343 349 338 339 340 343 337 342 343 62 342 338 342 348 52 70 87 78 62 65 35 12 28 96 133 36 110 128 140 139 143 148 192 192 171 159 156 157
74 83 95 63 355 294 332 335 331 335 332 345 345 337 341 45 74 310 333 335 345 65 76 64 49 61 64 61 9 94 51 86 124 114 122 148 139 145 180 175 180 166 161 162 163
85 87 83 73 263 344 312 321 317 331 341 351 351 355 42 57 21 315 330 357 28 60 52 82 68 99 91 90 70 80 106 64 103 101 105 129 151 169 223 163 143 150 164 169 171
80 84 79 112 340 313 304 315 307 331 345 354 356 18 69 81 321 333 358 48 45 73 62 61 101 112 86 59 56 98 105 113 100 122 142 152 160 168 186 147 146 163 179 178 178
95 85 99 6 315 305 305 302 302 326 348 351 6 70 63 80 358 340 47 52 31 73 80 64 122 86 125 100 145 124 99 102 154 170 175 140 219 228 168 167 170 188 186 185 179
98 109 78 352 316 312 302 300 307 333 342 345 16 71 87 301 251 23 359 57 61 73 95 99 88 86 70 122 74 84 84 195 196 180 165 146 270 189 170 174 192 197 198 190 182
100 94 62 330 321 316 307 301 317 346 357 353 57 85 99 343 28 334 27 76 60 67 70 82 68 89 107 98 80 32 286 256 267 202 154 204 267 188 180 190 202 205 203 199 189
87 58 26 339 330 325 312 273 337 36 1 35 60 83 14 9 315 341 351 47 57 66 56 43 58 83 54 60 299 269 281 264 269 204 211 224 255 225 195 201 213 211 207 207 206
54 354 6 350 334 331 339 5 17 15 35 67 67 89 342 306 324 8 356 57 37 56 36 21 69 75 84 14 161 153 223 272 257 198 227 245 263 262 211 213 224 222 212 213 214
354 334 6 336 337 346 54 81 140 136 77 40 73 76 26 315 64 6 5 68 54 48 357 34 82 173 158 36 188 202 250 277 272 167 211 298 283 265 219 222 221 220 216 215 202
340 5 350 336 340 46 70 106 29 138 95 19 22 38 348 43 58 356 20 81 74 64 43 125 156 246 185 7 348 238 235 269 277 313 235 309 285 278 258 242 228 223 216 213 207
358 5 359 345 77 47 51 337 322 183 87 344 357 9 5 85 60 350 12 80 50 125 106 93 349 135 138 275 86 311 233 293 303 327 296 8 299 307 303 274 240 230 214 212 204
357 353 23 56 132 73 339 325 275 98 328 10 358 324 32 86 146 13 22 41 102 125 135 330 60 81 222 302 165 289 342 312 309 218 338 9 304 274 330 312 288 239 221 210 193
358 360 354 40 65 41 326 327 47 30 257 148 344 360 68 25 38 324 42 45 104 92 53 104 72 64 298 349 210 313 301 63 59 65 295 343 29 285 275 240 294 304 217 188 171
355 26 61 56 92 330 9 40 345 198 32 203 166 63 82 27 48 33 40 35 60 326 339 337 236 47 19 348 332 19 360 329 343 348 289 274 283 253 255 262 258 274 217 179 163
358 11 38 59 342 350 57 32 254 227 202 205 140 96 106 23 36 39 77 79 41 74 103 358 299 53 5 68 1 33 61 60 307 311 301 346 242 269 209 226 261 277 193 165 163
18 360 29 357 355 50 84 267 239 209 169 167 118 149 138 94 122 92 76 157 174 70 147 149 273 92 60 81 43 333 58 141 121 125 299 270 284 280 256 257 256 227 167 175 175
62 12 320 332 348 67 104 246 238 201 159 165 197 191 198 203 187 193 184 182 174 193 208 180 311 88 137 119 53 174 143 93 51 311 303 288 284 259 289 286 238 229 201 190 183
58 319 328 341 48 73 219 232 236 225 180 187 206 166 193 200 199 208 194 184 189 170 170 146 152 217 185 195 178 146 198 78 120 160 245 299 290 223 256 252 254 245 209 195 189
94 242 335 1 155 64 203 205 210 189 178 203 159 161 186 177 191 214 214 223 173 169 170 180 145 267 230 151 161 193 208 184 192 221 209 226 274 221 238 248 254 264 213 193 187
141 253 350 92 212 218 237 232 228 185 207 190 196 200 166 180 215 206 199 157 181 177 175 181 172 322 317 18 354 226 196 165 116 107 219 203 268 201 236 261 258 253 205 185 178
114 239 320 67 60 173 187 226 216 217 203 178 164 138 148 179 171 214 204 205 204 196 143 146 175 201 240 255 158 234 205 195 183 212 212 229 278 287 284 281 265 232 199 184 181
63 234 171 233 255 212 192 180 187 205 220 191 209 213 182 185 184 212 179 175 231 172 132 183 241 207 255 260 251 251 244 201 211 215 232 281 254 279 289 296 290 224 185 185 189
176 165 120 210 245 192 205 221 213 193 177 213 217 201 192 201 201 199 179 201 202 183 187 167 254 225 287 235 217 267 250 225 227 238 253 262 275 276 275 251 250 209 187 195 198
123 70 141 220 163 181 227 228 229 180 214 219 203 160 201 221 167 120 120 94 167 172 184 175 183 249 274 327 314 288 254 200 199 208 211 257 276 241 280 278 258 219 199 201 199